Year,Month,Day,Hour,Minute,Value (Times are PST for temperature in C)
2006,06,27,00,00,19.50
2006,06,27,00,01,19.50
2006,06,27,00,02,19.40
2006,06,27,00,03,19.40
2006,06,27,00,04,19.40
2006,06,27,00,05,19.30
2006,06,27,00,06,19.30
2006,06,27,00,07,19.20
2006,06,27,00,08,19.20
2006,06,27,00,09,19.20
2006,06,27,00,10,19.20
2006,06,27,00,11,19.10
2006,06,27,00,12,19.10
2006,06,27,00,13,19.10
2006,06,27,00,14,19.10
2006,06,27,00,15,19.10
2006,06,27,00,16,19.10
2006,06,27,00,17,19.10
2006,06,27,00,18,19.10
2006,06,27,00,19,19.10
2006,06,27,00,20,19.10
2006,06,27,00,21,19.10
2006,06,27,00,22,19.10
2006,06,27,00,23,19.10
2006,06,27,00,24,19.10
2006,06,27,00,25,19.10
2006,06,27,00,26,19.10
2006,06,27,00,27,19.10
2006,06,27,00,28,19.10
2006,06,27,00,29,19.10
2006,06,27,00,30,19.10
2006,06,27,00,31,19.00
2006,06,27,00,32,18.90
2006,06,27,00,33,18.90
2006,06,27,00,34,18.90
2006,06,27,00,35,18.90
2006,06,27,00,36,18.90
2006,06,27,00,37,18.90
2006,06,27,00,38,18.90
2006,06,27,00,39,18.90
2006,06,27,00,40,18.90
2006,06,27,00,41,18.90
2006,06,27,00,42,18.90
2006,06,27,00,43,18.90
2006,06,27,00,44,18.90
2006,06,27,00,45,18.90
2006,06,27,00,46,18.90
2006,06,27,00,47,18.90
2006,06,27,00,48,18.90
2006,06,27,00,49,18.90
2006,06,27,00,50,18.80
2006,06,27,00,51,18.80
2006,06,27,00,52,18.80
2006,06,27,00,53,18.70
2006,06,27,00,54,18.70
2006,06,27,00,55,18.70
2006,06,27,00,56,18.60
2006,06,27,00,57,18.60
2006,06,27,00,58,18.60
2006,06,27,00,59,18.60
2006,06,27,01,00,18.50
2006,06,27,01,01,18.50
2006,06,27,01,02,18.50
2006,06,27,01,03,18.50
2006,06,27,01,04,18.40
2006,06,27,01,05,18.40
2006,06,27,01,06,18.40
2006,06,27,01,07,18.40
2006,06,27,01,08,18.30
2006,06,27,01,09,18.30
2006,06,27,01,10,18.30
2006,06,27,01,11,18.30
2006,06,27,01,12,18.20
2006,06,27,01,13,18.20
2006,06,27,01,14,18.20
2006,06,27,01,15,18.20
2006,06,27,01,16,18.20
2006,06,27,01,17,18.20
2006,06,27,01,18,18.20
2006,06,27,01,19,18.20
2006,06,27,01,20,18.20
2006,06,27,01,21,18.20
2006,06,27,01,22,18.20
2006,06,27,01,23,18.20
2006,06,27,01,24,18.20
2006,06,27,01,25,18.20
2006,06,27,01,26,18.20
2006,06,27,01,27,18.20
2006,06,27,01,28,18.20
2006,06,27,01,29,18.20
2006,06,27,01,30,18.20
2006,06,27,01,31,18.20
2006,06,27,01,32,18.20
2006,06,27,01,33,18.20
2006,06,27,01,34,18.20
2006,06,27,01,35,18.20
2006,06,27,01,36,18.10
2006,06,27,01,37,18.10
2006,06,27,01,38,18.10
2006,06,27,01,39,18.10
2006,06,27,01,40,18.10
2006,06,27,01,41,18.10
2006,06,27,01,42,18.10
2006,06,27,01,43,18.00
2006,06,27,01,44,17.90
2006,06,27,01,45,17.90
2006,06,27,01,46,17.90
2006,06,27,01,47,17.90
2006,06,27,01,48,17.90
2006,06,27,01,49,17.90
2006,06,27,01,50,17.90
2006,06,27,01,51,17.90
2006,06,27,01,52,17.80
2006,06,27,01,53,17.80
2006,06,27,01,54,17.80
2006,06,27,01,55,17.80
2006,06,27,01,56,17.70
2006,06,27,01,57,17.70
2006,06,27,01,58,17.80
2006,06,27,01,59,17.80
2006,06,27,02,00,17.90
2006,06,27,02,01,17.90
2006,06,27,02,02,17.90
2006,06,27,02,03,17.90
2006,06,27,02,04,17.90
2006,06,27,02,05,17.90
2006,06,27,02,06,17.90
2006,06,27,02,07,17.90
2006,06,27,02,08,17.80
2006,06,27,02,09,17.80
2006,06,27,02,10,17.80
2006,06,27,02,11,17.80
2006,06,27,02,12,17.80
2006,06,27,02,13,17.80
2006,06,27,02,14,17.70
2006,06,27,02,15,17.70
2006,06,27,02,16,17.70
2006,06,27,02,17,17.70
2006,06,27,02,18,17.70
2006,06,27,02,19,17.60
2006,06,27,02,20,17.60
2006,06,27,02,21,17.60
2006,06,27,02,22,17.60
2006,06,27,02,23,17.50
2006,06,27,02,24,17.50
2006,06,27,02,25,17.50
2006,06,27,02,26,17.40
2006,06,27,02,27,17.40
2006,06,27,02,28,17.40
2006,06,27,02,29,17.30
2006,06,27,02,30,17.30
2006,06,27,02,31,17.30
2006,06,27,02,32,17.30
2006,06,27,02,33,17.30
2006,06,27,02,34,17.30
2006,06,27,02,35,17.20
2006,06,27,02,36,17.20
2006,06,27,02,37,17.10
2006,06,27,02,38,17.10
2006,06,27,02,39,17.10
2006,06,27,02,40,17.00
2006,06,27,02,41,17.00
2006,06,27,02,42,17.00
2006,06,27,02,43,16.90
2006,06,27,02,44,16.90
2006,06,27,02,45,16.90
2006,06,27,02,46,16.80
2006,06,27,02,47,16.80
2006,06,27,02,48,16.80
2006,06,27,02,49,16.80
2006,06,27,02,50,16.70
2006,06,27,02,51,16.70
2006,06,27,02,52,16.70
2006,06,27,02,53,16.70
2006,06,27,02,54,16.70
2006,06,27,02,55,16.70
2006,06,27,02,56,16.70
2006,06,27,02,57,16.70
2006,06,27,02,58,16.70
2006,06,27,02,59,16.70
2006,06,27,03,00,16.60
2006,06,27,03,01,16.60
2006,06,27,03,02,16.70
2006,06,27,03,03,16.70
2006,06,27,03,04,16.70
2006,06,27,03,05,16.70
2006,06,27,03,06,16.60
2006,06,27,03,07,16.60
2006,06,27,03,08,16.60
2006,06,27,03,09,16.60
2006,06,27,03,10,16.70
2006,06,27,03,11,16.70
2006,06,27,03,12,16.70
2006,06,27,03,13,16.70
2006,06,27,03,14,16.70
2006,06,27,03,15,16.70
2006,06,27,03,16,16.70
2006,06,27,03,17,16.70
2006,06,27,03,18,16.70
2006,06,27,03,19,16.60
2006,06,27,03,20,16.60
2006,06,27,03,21,16.50
2006,06,27,03,22,16.40
2006,06,27,03,23,16.40
2006,06,27,03,24,16.40
2006,06,27,03,25,16.40
2006,06,27,03,26,16.30
2006,06,27,03,27,16.30
2006,06,27,03,28,16.20
2006,06,27,03,29,16.20
2006,06,27,03,30,16.20
2006,06,27,03,31,16.10
2006,06,27,03,32,16.10
2006,06,27,03,33,16.10
2006,06,27,03,34,16.10
2006,06,27,03,35,16.10
2006,06,27,03,36,15.90
2006,06,27,03,37,15.90
2006,06,27,03,38,15.90
2006,06,27,03,39,15.80
2006,06,27,03,40,15.80
2006,06,27,03,41,15.80
2006,06,27,03,42,15.80
2006,06,27,03,43,15.80
2006,06,27,03,44,15.80
2006,06,27,03,45,15.80
2006,06,27,03,46,15.80
2006,06,27,03,47,15.70
2006,06,27,03,48,15.70
2006,06,27,03,49,15.70
2006,06,27,03,50,15.70
2006,06,27,03,51,15.70
2006,06,27,03,52,15.70
2006,06,27,03,53,15.80
2006,06,27,03,54,15.80
2006,06,27,03,55,15.80
2006,06,27,03,56,15.80
2006,06,27,03,57,15.90
2006,06,27,03,58,15.90
2006,06,27,03,59,15.90
2006,06,27,04,00,16.00
2006,06,27,04,01,16.10
2006,06,27,04,02,16.10
2006,06,27,04,03,16.10
2006,06,27,04,04,16.30
2006,06,27,04,05,16.40
2006,06,27,04,06,16.50
2006,06,27,04,07,16.60
2006,06,27,04,08,16.70
2006,06,27,04,09,16.70
2006,06,27,04,10,16.80
2006,06,27,04,11,16.80
2006,06,27,04,12,16.80
2006,06,27,04,13,16.80
2006,06,27,04,14,16.80
2006,06,27,04,15,16.80
2006,06,27,04,16,16.80
2006,06,27,04,17,16.70
2006,06,27,04,18,16.70
2006,06,27,04,19,16.70
2006,06,27,04,20,16.70
2006,06,27,04,21,16.70
2006,06,27,04,22,16.60
2006,06,27,04,23,16.60
2006,06,27,04,24,16.50
2006,06,27,04,25,16.40
2006,06,27,04,26,16.40
2006,06,27,04,27,16.40
2006,06,27,04,28,16.40
2006,06,27,04,29,16.30
2006,06,27,04,30,16.30
2006,06,27,04,31,16.20
2006,06,27,04,32,16.20
2006,06,27,04,33,16.10
2006,06,27,04,34,16.10
2006,06,27,04,35,16.10
2006,06,27,04,36,15.90
2006,06,27,04,37,15.90
2006,06,27,04,38,15.80
2006,06,27,04,39,15.80
2006,06,27,04,40,15.80
2006,06,27,04,41,15.80
2006,06,27,04,42,15.80
2006,06,27,04,43,15.70
2006,06,27,04,44,15.70
2006,06,27,04,45,15.70
2006,06,27,04,46,15.60
2006,06,27,04,47,15.60
2006,06,27,04,48,15.60
2006,06,27,04,49,15.50
2006,06,27,04,50,15.50
2006,06,27,04,51,15.50
2006,06,27,04,52,15.40
2006,06,27,04,53,15.40
2006,06,27,04,54,15.40
2006,06,27,04,55,15.30
2006,06,27,04,56,15.30
2006,06,27,04,57,15.30
2006,06,27,04,58,15.20
2006,06,27,04,59,15.20
2006,06,27,05,00,15.10
2006,06,27,05,01,15.10
2006,06,27,05,02,15.10
2006,06,27,05,03,15.00
2006,06,27,05,04,15.00
2006,06,27,05,05,15.00
2006,06,27,05,06,14.90
2006,06,27,05,07,14.90
2006,06,27,05,08,14.90
2006,06,27,05,09,14.90
2006,06,27,05,10,14.80
2006,06,27,05,11,14.80
2006,06,27,05,12,14.80
2006,06,27,05,13,14.80
2006,06,27,05,14,14.80
2006,06,27,05,15,14.80
2006,06,27,05,16,14.80
2006,06,27,05,17,14.80
2006,06,27,05,18,14.80
2006,06,27,05,19,14.80
2006,06,27,05,20,14.80
2006,06,27,05,21,14.80
2006,06,27,05,22,14.80
2006,06,27,05,23,14.80
2006,06,27,05,24,14.80
2006,06,27,05,25,14.80
2006,06,27,05,26,14.80
2006,06,27,05,27,14.80
2006,06,27,05,28,14.80
2006,06,27,05,29,14.80
2006,06,27,05,30,14.80
2006,06,27,05,31,14.80
2006,06,27,05,32,14.80
2006,06,27,05,33,14.80
2006,06,27,05,34,14.80
2006,06,27,05,35,14.80
2006,06,27,05,36,14.80
2006,06,27,05,37,14.80
2006,06,27,05,38,14.80
2006,06,27,05,39,14.80
2006,06,27,05,40,14.80
2006,06,27,05,41,14.80
2006,06,27,05,42,14.80
2006,06,27,05,43,14.80
2006,06,27,05,44,14.90
2006,06,27,05,45,14.90
2006,06,27,05,46,14.90
2006,06,27,05,47,14.90
2006,06,27,05,48,15.00
2006,06,27,05,49,15.00
2006,06,27,05,50,15.00
2006,06,27,05,51,15.00
2006,06,27,05,52,15.00
2006,06,27,05,53,15.00
2006,06,27,05,54,15.00
2006,06,27,05,55,15.00
2006,06,27,05,56,15.00
2006,06,27,05,57,15.00
2006,06,27,05,58,15.10
2006,06,27,05,59,15.10
2006,06,27,06,00,15.10
2006,06,27,06,01,15.10
2006,06,27,06,02,15.10
2006,06,27,06,03,15.10
2006,06,27,06,04,15.20
2006,06,27,06,05,15.20
2006,06,27,06,06,15.30
2006,06,27,06,07,15.30
2006,06,27,06,08,15.30
2006,06,27,06,09,15.40
2006,06,27,06,10,15.50
2006,06,27,06,11,15.50
2006,06,27,06,12,15.60
2006,06,27,06,13,15.70
2006,06,27,06,14,15.70
2006,06,27,06,15,15.80
2006,06,27,06,16,15.80
2006,06,27,06,17,15.90
2006,06,27,06,18,15.90
2006,06,27,06,19,16.00
2006,06,27,06,20,16.10
2006,06,27,06,21,16.10
2006,06,27,06,22,16.10
2006,06,27,06,23,16.20
2006,06,27,06,24,16.20
2006,06,27,06,25,16.30
2006,06,27,06,26,16.40
2006,06,27,06,27,16.50
2006,06,27,06,28,16.60
2006,06,27,06,29,16.70
2006,06,27,06,30,16.70
2006,06,27,06,31,16.90
2006,06,27,06,32,16.90
2006,06,27,06,33,17.00
2006,06,27,06,34,17.00
2006,06,27,06,35,17.10
2006,06,27,06,36,17.10
2006,06,27,06,37,17.20
2006,06,27,06,38,17.20
2006,06,27,06,39,17.30
2006,06,27,06,40,17.30
2006,06,27,06,41,17.30
2006,06,27,06,42,17.40
2006,06,27,06,43,17.40
2006,06,27,06,44,17.50
2006,06,27,06,45,17.50
2006,06,27,06,46,17.60
2006,06,27,06,47,17.60
2006,06,27,06,48,17.70
2006,06,27,06,49,17.70
2006,06,27,06,50,17.80
2006,06,27,06,51,17.80
2006,06,27,06,52,17.90
2006,06,27,06,53,17.90
2006,06,27,06,54,17.90
2006,06,27,06,55,18.00
2006,06,27,06,56,18.10
2006,06,27,06,57,18.20
2006,06,27,06,58,18.20
2006,06,27,06,59,18.20
2006,06,27,07,00,18.20
2006,06,27,07,01,18.30
2006,06,27,07,02,18.30
2006,06,27,07,03,18.30
2006,06,27,07,04,18.40
2006,06,27,07,05,18.40
2006,06,27,07,06,18.50
2006,06,27,07,07,18.50
2006,06,27,07,08,18.60
2006,06,27,07,09,18.60
2006,06,27,07,10,18.80
2006,06,27,07,11,18.90
2006,06,27,07,12,18.90
2006,06,27,07,13,19.00
2006,06,27,07,14,19.10
2006,06,27,07,15,19.10
2006,06,27,07,16,19.10
2006,06,27,07,17,19.20
2006,06,27,07,18,19.30
2006,06,27,07,19,19.40
2006,06,27,07,20,19.40
2006,06,27,07,21,19.50
2006,06,27,07,22,19.60
2006,06,27,07,23,19.60
2006,06,27,07,24,19.80
2006,06,27,07,25,19.90
2006,06,27,07,26,20.00
2006,06,27,07,27,20.20
2006,06,27,07,28,20.30
2006,06,27,07,29,20.40
2006,06,27,07,30,20.50
2006,06,27,07,31,20.60
2006,06,27,07,32,20.60
2006,06,27,07,33,20.70
2006,06,27,07,34,20.80
2006,06,27,07,35,20.90
2006,06,27,07,36,21.00
2006,06,27,07,37,21.00
2006,06,27,07,38,21.10
2006,06,27,07,39,21.00
2006,06,27,07,40,20.90
2006,06,27,07,41,20.90
2006,06,27,07,42,20.80
2006,06,27,07,43,20.70
2006,06,27,07,44,20.70
2006,06,27,07,45,20.80
2006,06,27,07,46,20.80
2006,06,27,07,47,20.90
2006,06,27,07,48,20.90
2006,06,27,07,49,21.00
2006,06,27,07,50,21.00
2006,06,27,07,51,20.90
2006,06,27,07,52,20.80
2006,06,27,07,53,20.80
2006,06,27,07,54,20.60
2006,06,27,07,55,20.50
2006,06,27,07,56,20.50
2006,06,27,07,57,20.50
2006,06,27,07,58,20.60
2006,06,27,07,59,20.60
2006,06,27,08,00,20.60
2006,06,27,08,01,20.60
2006,06,27,08,02,20.70
2006,06,27,08,03,20.70
2006,06,27,08,04,20.70
2006,06,27,08,05,20.70
2006,06,27,08,06,20.70
2006,06,27,08,07,20.70
2006,06,27,08,08,20.70
2006,06,27,08,09,20.70
2006,06,27,08,10,20.70
2006,06,27,08,11,20.70
2006,06,27,08,12,20.80
2006,06,27,08,13,20.90
2006,06,27,08,14,21.00
2006,06,27,08,15,21.00
2006,06,27,08,16,21.10
2006,06,27,08,17,21.10
2006,06,27,08,18,21.00
2006,06,27,08,19,21.00
2006,06,27,08,20,21.00
2006,06,27,08,21,20.90
2006,06,27,08,22,21.00
2006,06,27,08,23,21.00
2006,06,27,08,24,21.20
2006,06,27,08,25,21.30
2006,06,27,08,26,21.30
2006,06,27,08,27,21.40
2006,06,27,08,28,21.50
2006,06,27,08,29,21.60
2006,06,27,08,30,21.70
2006,06,27,08,31,21.70
2006,06,27,08,32,21.80
2006,06,27,08,33,21.90
2006,06,27,08,34,21.90
2006,06,27,08,35,21.90
2006,06,27,08,36,21.90
2006,06,27,08,37,21.90
2006,06,27,08,38,22.00
2006,06,27,08,39,22.00
2006,06,27,08,40,21.90
2006,06,27,08,41,21.90
2006,06,27,08,42,21.80
2006,06,27,08,43,21.70
2006,06,27,08,44,21.70
2006,06,27,08,45,21.70
2006,06,27,08,46,21.70
2006,06,27,08,47,21.60
2006,06,27,08,48,21.60
2006,06,27,08,49,21.60
2006,06,27,08,50,21.60
2006,06,27,08,51,21.60
2006,06,27,08,52,21.50
2006,06,27,08,53,21.50
2006,06,27,08,54,21.60
2006,06,27,08,55,21.70
2006,06,27,08,56,21.80
2006,06,27,08,57,21.90
2006,06,27,08,58,21.90
2006,06,27,08,59,21.90
2006,06,27,09,00,21.90
2006,06,27,09,01,22.00
2006,06,27,09,02,22.00
2006,06,27,09,03,22.10
2006,06,27,09,04,22.20
2006,06,27,09,05,22.30
2006,06,27,09,06,22.30
2006,06,27,09,07,22.40
2006,06,27,09,08,22.40
2006,06,27,09,09,22.40
2006,06,27,09,10,22.50
2006,06,27,09,11,22.50
2006,06,27,09,12,22.50
2006,06,27,09,13,22.60
2006,06,27,09,14,22.60
2006,06,27,09,15,22.40
2006,06,27,09,16,22.40
2006,06,27,09,17,22.40
2006,06,27,09,18,22.30
2006,06,27,09,19,22.30
2006,06,27,09,20,22.30
2006,06,27,09,21,22.30
2006,06,27,09,22,22.20
2006,06,27,09,23,22.20
2006,06,27,09,24,22.30
2006,06,27,09,25,22.40
2006,06,27,09,26,22.50
2006,06,27,09,27,22.50
2006,06,27,09,28,22.50
2006,06,27,09,29,22.40
2006,06,27,09,30,22.40
2006,06,27,09,31,22.40
2006,06,27,09,32,22.30
2006,06,27,09,33,22.10
2006,06,27,09,34,21.90
2006,06,27,09,35,21.90
2006,06,27,09,36,22.00
2006,06,27,09,37,22.10
2006,06,27,09,38,22.10
2006,06,27,09,39,22.20
2006,06,27,09,40,22.30
2006,06,27,09,41,22.30
2006,06,27,09,42,22.30
2006,06,27,09,43,22.20
2006,06,27,09,44,22.20
2006,06,27,09,45,22.20
2006,06,27,09,46,22.20
2006,06,27,09,47,22.10
2006,06,27,09,48,22.10
2006,06,27,09,49,22.10
2006,06,27,09,50,22.00
2006,06,27,09,51,21.90
2006,06,27,09,52,21.80
2006,06,27,09,53,21.80
2006,06,27,09,54,21.90
2006,06,27,09,55,21.90
2006,06,27,09,56,21.90
2006,06,27,09,57,22.00
2006,06,27,09,58,22.00
2006,06,27,09,59,22.10
2006,06,27,10,00,22.20
2006,06,27,10,01,22.30
2006,06,27,10,02,22.20
2006,06,27,10,03,22.20
2006,06,27,10,04,22.20
2006,06,27,10,05,22.30
2006,06,27,10,06,22.50
2006,06,27,10,07,22.60
2006,06,27,10,08,22.70
2006,06,27,10,09,22.70
2006,06,27,10,10,22.70
2006,06,27,10,11,22.70
2006,06,27,10,12,22.70
2006,06,27,10,13,22.60
2006,06,27,10,14,22.50
2006,06,27,10,15,22.60
2006,06,27,10,16,22.60
2006,06,27,10,17,22.60
2006,06,27,10,18,22.70
2006,06,27,10,19,22.70
2006,06,27,10,20,22.70
2006,06,27,10,21,22.60
2006,06,27,10,22,22.60
2006,06,27,10,23,22.60
2006,06,27,10,24,22.50
2006,06,27,10,25,22.50
2006,06,27,10,26,22.60
2006,06,27,10,27,22.70
2006,06,27,10,28,22.80
2006,06,27,10,29,22.80
2006,06,27,10,30,22.90
2006,06,27,10,31,22.90
2006,06,27,10,32,23.00
2006,06,27,10,33,23.10
2006,06,27,10,34,23.10
2006,06,27,10,35,23.10
2006,06,27,10,36,23.00
2006,06,27,10,37,22.80
2006,06,27,10,38,22.70
2006,06,27,10,39,22.70
2006,06,27,10,40,22.80
2006,06,27,10,41,23.00
2006,06,27,10,42,23.10
2006,06,27,10,43,23.20
2006,06,27,10,44,23.30
2006,06,27,10,45,23.30
2006,06,27,10,46,23.30
2006,06,27,10,47,23.30
2006,06,27,10,48,23.30
2006,06,27,10,49,23.30
2006,06,27,10,50,23.20
2006,06,27,10,51,23.20
2006,06,27,10,52,23.20
2006,06,27,10,53,23.20
2006,06,27,10,54,23.30
2006,06,27,10,55,23.20
2006,06,27,10,56,23.10
2006,06,27,10,57,23.20
2006,06,27,10,58,23.30
2006,06,27,10,59,23.40
2006,06,27,11,00,23.50
2006,06,27,11,01,23.70
2006,06,27,11,02,23.80
2006,06,27,11,03,23.90
2006,06,27,11,04,23.90
2006,06,27,11,05,23.90
2006,06,27,11,06,23.90
2006,06,27,11,07,23.90
2006,06,27,11,08,23.90
2006,06,27,11,09,24.00
2006,06,27,11,10,24.10
2006,06,27,11,11,24.20
2006,06,27,11,12,24.10
2006,06,27,11,13,24.00
2006,06,27,11,14,23.90
2006,06,27,11,15,24.00
2006,06,27,11,16,24.00
2006,06,27,11,17,23.70
2006,06,27,11,18,23.60
2006,06,27,11,19,23.50
2006,06,27,11,20,23.40
2006,06,27,11,21,23.40
2006,06,27,11,22,23.40
2006,06,27,11,23,23.40
2006,06,27,11,24,23.30
2006,06,27,11,25,23.40
2006,06,27,11,26,23.50
2006,06,27,11,27,23.60
2006,06,27,11,28,23.70
2006,06,27,11,29,23.70
2006,06,27,11,30,23.70
2006,06,27,11,31,23.70
2006,06,27,11,32,23.70
2006,06,27,11,33,23.70
2006,06,27,11,34,23.90
2006,06,27,11,35,23.90
2006,06,27,11,36,23.90
2006,06,27,11,37,23.90
2006,06,27,11,38,24.00
2006,06,27,11,39,24.10
2006,06,27,11,40,24.30
2006,06,27,11,41,24.40
2006,06,27,11,42,24.40
2006,06,27,11,43,24.50
2006,06,27,11,44,24.60
2006,06,27,11,45,24.70
2006,06,27,11,46,24.70
2006,06,27,11,47,24.50
2006,06,27,11,48,24.50
2006,06,27,11,49,24.50
2006,06,27,11,50,24.60
2006,06,27,11,51,24.60
2006,06,27,11,52,24.70
2006,06,27,11,53,24.70
2006,06,27,11,54,24.70
2006,06,27,11,55,24.60
2006,06,27,11,56,24.50
2006,06,27,11,57,24.60
2006,06,27,11,58,24.70
2006,06,27,11,59,24.60
2006,06,27,12,00,24.60
2006,06,27,12,01,24.60
2006,06,27,12,02,24.60
2006,06,27,12,03,24.80
2006,06,27,12,04,24.90
2006,06,27,12,05,25.10
2006,06,27,12,06,25.00
2006,06,27,12,07,24.60
2006,06,27,12,08,24.30
2006,06,27,12,09,24.10
2006,06,27,12,10,24.10
2006,06,27,12,11,23.90
2006,06,27,12,12,24.00
2006,06,27,12,13,24.10
2006,06,27,12,14,24.20
2006,06,27,12,15,24.40
2006,06,27,12,16,24.30
2006,06,27,12,17,24.30
2006,06,27,12,18,24.30
2006,06,27,12,19,24.20
2006,06,27,12,20,24.30
2006,06,27,12,21,24.50
2006,06,27,12,22,24.50
2006,06,27,12,23,24.60
2006,06,27,12,24,24.60
2006,06,27,12,25,24.50
2006,06,27,12,26,24.40
2006,06,27,12,27,24.50
2006,06,27,12,28,24.60
2006,06,27,12,29,24.90
2006,06,27,12,30,25.00
2006,06,27,12,31,25.30
2006,06,27,12,32,25.50
2006,06,27,12,33,25.50
2006,06,27,12,34,25.30
2006,06,27,12,35,25.10
2006,06,27,12,36,25.10
2006,06,27,12,37,25.20
2006,06,27,12,38,25.30
2006,06,27,12,39,25.40
2006,06,27,12,40,25.40
2006,06,27,12,41,25.20
2006,06,27,12,42,25.10
2006,06,27,12,43,24.90
2006,06,27,12,44,24.80
2006,06,27,12,45,24.80
2006,06,27,12,46,24.80
2006,06,27,12,47,24.70
2006,06,27,12,48,24.50
2006,06,27,12,49,24.40
2006,06,27,12,50,24.30
2006,06,27,12,51,24.40
2006,06,27,12,52,24.50
2006,06,27,12,53,24.40
2006,06,27,12,54,24.20
2006,06,27,12,55,24.30
2006,06,27,12,56,24.40
2006,06,27,12,57,24.50
2006,06,27,12,58,24.50
2006,06,27,12,59,24.40
2006,06,27,13,00,24.60
2006,06,27,13,01,24.70
2006,06,27,13,02,24.80
2006,06,27,13,03,24.90
2006,06,27,13,04,24.90
2006,06,27,13,05,24.80
2006,06,27,13,06,24.70
2006,06,27,13,07,24.80
2006,06,27,13,08,24.80
2006,06,27,13,09,24.60
2006,06,27,13,10,24.50
2006,06,27,13,11,24.50
2006,06,27,13,12,24.60
2006,06,27,13,13,24.80
2006,06,27,13,14,24.90
2006,06,27,13,15,24.80
2006,06,27,13,16,24.80
2006,06,27,13,17,24.80
2006,06,27,13,18,24.70
2006,06,27,13,19,24.80
2006,06,27,13,20,24.90
2006,06,27,13,21,25.00
2006,06,27,13,22,25.20
2006,06,27,13,23,25.40
2006,06,27,13,24,25.40
2006,06,27,13,25,25.50
2006,06,27,13,26,25.50
2006,06,27,13,27,25.60
2006,06,27,13,28,25.70
2006,06,27,13,29,25.60
2006,06,27,13,30,25.60
2006,06,27,13,31,25.60
2006,06,27,13,32,25.60
2006,06,27,13,33,25.70
2006,06,27,13,34,25.70
2006,06,27,13,35,25.70
2006,06,27,13,36,25.70
2006,06,27,13,37,25.70
2006,06,27,13,38,25.70
2006,06,27,13,39,25.80
2006,06,27,13,40,25.90
2006,06,27,13,41,26.00
2006,06,27,13,42,26.00
2006,06,27,13,43,25.90
2006,06,27,13,44,25.90
2006,06,27,13,45,25.80
2006,06,27,13,46,25.70
2006,06,27,13,47,25.70
2006,06,27,13,48,25.70
2006,06,27,13,49,25.60
2006,06,27,13,50,25.60
2006,06,27,13,51,25.60
2006,06,27,13,52,25.60
2006,06,27,13,53,25.70
2006,06,27,13,54,25.60
2006,06,27,13,55,25.70
2006,06,27,13,56,25.80
2006,06,27,13,57,25.90
2006,06,27,13,58,26.00
2006,06,27,13,59,26.00
2006,06,27,14,00,26.20
2006,06,27,14,01,26.40
2006,06,27,14,02,26.50
2006,06,27,14,03,26.60
2006,06,27,14,04,26.80
2006,06,27,14,05,27.00
2006,06,27,14,06,27.10
2006,06,27,14,07,27.10
2006,06,27,14,08,27.10
2006,06,27,14,09,27.00
2006,06,27,14,10,26.90
2006,06,27,14,11,27.00
2006,06,27,14,12,27.00
2006,06,27,14,13,26.90
2006,06,27,14,14,26.70
2006,06,27,14,15,26.70
2006,06,27,14,16,26.70
2006,06,27,14,17,26.60
2006,06,27,14,18,26.40
2006,06,27,14,19,26.30
2006,06,27,14,20,26.40
2006,06,27,14,21,26.50
2006,06,27,14,22,26.60
2006,06,27,14,23,26.60
2006,06,27,14,24,26.60
2006,06,27,14,25,26.60
2006,06,27,14,26,26.50
2006,06,27,14,27,26.40
2006,06,27,14,28,26.40
2006,06,27,14,29,26.30
2006,06,27,14,30,26.30
2006,06,27,14,31,26.30
2006,06,27,14,32,26.30
2006,06,27,14,33,26.30
2006,06,27,14,34,26.30
2006,06,27,14,35,26.20
2006,06,27,14,36,26.20
2006,06,27,14,37,26.20
2006,06,27,14,38,26.30
2006,06,27,14,39,26.50
2006,06,27,14,40,26.60
2006,06,27,14,41,26.60
2006,06,27,14,42,26.60
2006,06,27,14,43,26.60
2006,06,27,14,44,26.60
2006,06,27,14,45,26.60
2006,06,27,14,46,26.70
2006,06,27,14,47,26.70
2006,06,27,14,48,26.80
2006,06,27,14,49,26.90
2006,06,27,14,50,27.10
2006,06,27,14,51,27.10
2006,06,27,14,52,27.10
2006,06,27,14,53,27.00
2006,06,27,14,54,27.10
2006,06,27,14,55,27.10
2006,06,27,14,56,27.20
2006,06,27,14,57,27.30
2006,06,27,14,58,27.50
2006,06,27,14,59,27.70
2006,06,27,15,00,27.90
2006,06,27,15,01,28.10
2006,06,27,15,02,28.10
2006,06,27,15,03,28.00
2006,06,27,15,04,27.90
2006,06,27,15,05,27.80
2006,06,27,15,06,27.90
2006,06,27,15,07,27.90
2006,06,27,15,08,27.90
2006,06,27,15,09,27.90
2006,06,27,15,10,27.90
2006,06,27,15,11,27.90
2006,06,27,15,12,27.80
2006,06,27,15,13,27.80
2006,06,27,15,14,27.90
2006,06,27,15,15,28.00
2006,06,27,15,16,28.00
2006,06,27,15,17,28.00
2006,06,27,15,18,28.10
2006,06,27,15,19,28.10
2006,06,27,15,20,28.20
2006,06,27,15,21,28.30
2006,06,27,15,22,28.30
2006,06,27,15,23,28.40
2006,06,27,15,24,28.40
2006,06,27,15,25,28.40
2006,06,27,15,26,28.40
2006,06,27,15,27,28.40
2006,06,27,15,28,28.60
2006,06,27,15,29,28.60
2006,06,27,15,30,28.60
2006,06,27,15,31,28.70
2006,06,27,15,32,28.70
2006,06,27,15,33,28.70
2006,06,27,15,34,28.50
2006,06,27,15,35,28.30
2006,06,27,15,36,28.20
2006,06,27,15,37,28.10
2006,06,27,15,38,28.00
2006,06,27,15,39,28.00
2006,06,27,15,40,28.00
2006,06,27,15,41,28.00
2006,06,27,15,42,27.90
2006,06,27,15,43,27.90
2006,06,27,15,44,28.00
2006,06,27,15,45,28.00
2006,06,27,15,46,28.00
2006,06,27,15,47,27.70
2006,06,27,15,48,27.60
2006,06,27,15,49,27.40
2006,06,27,15,50,27.40
2006,06,27,15,51,27.30
2006,06,27,15,52,27.30
2006,06,27,15,53,27.30
2006,06,27,15,54,27.20
2006,06,27,15,55,27.20
2006,06,27,15,56,27.10
2006,06,27,15,57,27.10
2006,06,27,15,58,27.10
2006,06,27,15,59,27.20
2006,06,27,16,00,27.30
2006,06,27,16,01,27.30
2006,06,27,16,02,27.30
2006,06,27,16,03,27.30
2006,06,27,16,04,27.20
2006,06,27,16,05,27.20
2006,06,27,16,06,27.20
2006,06,27,16,07,27.10
2006,06,27,16,08,27.00
2006,06,27,16,09,26.90
2006,06,27,16,10,27.10
2006,06,27,16,11,27.10
2006,06,27,16,12,27.10
2006,06,27,16,13,27.10
2006,06,27,16,14,26.90
2006,06,27,16,15,27.00
2006,06,27,16,16,27.10
2006,06,27,16,17,27.10
2006,06,27,16,18,27.10
2006,06,27,16,19,27.20
2006,06,27,16,20,27.20
2006,06,27,16,21,27.20
2006,06,27,16,22,27.30
2006,06,27,16,23,27.30
2006,06,27,16,24,27.30
2006,06,27,16,25,27.30
2006,06,27,16,26,27.20
2006,06,27,16,27,27.20
2006,06,27,16,28,27.20
2006,06,27,16,29,27.10
2006,06,27,16,30,27.10
2006,06,27,16,31,27.10
2006,06,27,16,32,27.10
2006,06,27,16,33,27.10
2006,06,27,16,34,27.10
2006,06,27,16,35,27.10
2006,06,27,16,36,27.00
2006,06,27,16,37,26.90
2006,06,27,16,38,26.80
2006,06,27,16,39,26.70
2006,06,27,16,40,26.70
2006,06,27,16,41,26.80
2006,06,27,16,42,26.80
2006,06,27,16,43,26.70
2006,06,27,16,44,26.70
2006,06,27,16,45,26.60
2006,06,27,16,46,26.60
2006,06,27,16,47,26.60
2006,06,27,16,48,26.50
2006,06,27,16,49,26.40
2006,06,27,16,50,26.20
2006,06,27,16,51,26.20
2006,06,27,16,52,26.00
2006,06,27,16,53,25.90
2006,06,27,16,54,25.80
2006,06,27,16,55,25.60
2006,06,27,16,56,25.60
2006,06,27,16,57,25.50
2006,06,27,16,58,25.50
2006,06,27,16,59,25.50
2006,06,27,17,00,25.40
2006,06,27,17,01,25.40
2006,06,27,17,02,25.40
2006,06,27,17,03,25.30
2006,06,27,17,04,25.30
2006,06,27,17,05,25.40
2006,06,27,17,06,25.30
2006,06,27,17,07,25.30
2006,06,27,17,08,25.30
2006,06,27,17,09,25.20
2006,06,27,17,10,25.20
2006,06,27,17,11,24.90
2006,06,27,17,12,24.80
2006,06,27,17,13,24.70
2006,06,27,17,14,24.50
2006,06,27,17,15,24.40
2006,06,27,17,16,24.40
2006,06,27,17,17,24.40
2006,06,27,17,18,24.40
2006,06,27,17,19,24.40